Погода в Верхнем Уртуе

Россия / Амурская область     49°51′06″N   127°59′44″E
темп.,
°C
ветер,
м/с
пор.,
м/с
влажн.,
%
обл.,
%
осадки,
мм/ч
давл.,
гПа
погр.,
м
11 апреля, вс
вс1100:00+10св236798 0.3 101462
03:00+7ссз71267100 0.3 1017397
06:00+3с510756 0.0 1021462
09:00+4с67390 0.0 1023734
12:00+7с45315 0.0 10231082
15:00+9с443051 0.0 10211678
18:00+8св5431100 0.0 10211421
21:00+4св7103199 0.0 1022652
12 апреля, пн
пн1200:00+1св71232100 0.0 1023648
03:000ссв71140100 0.1 1023856
06:00−3св71274100 0.2 1022789
09:00−2св81345100 1.2 1019981
12:00−3ссв81252100 3.2 10181067
15:00−3с81355100 4.5 10171313
18:00−2с71347100 0.2 10161305
21:00−4с61350100 0.2 1017476
13 апреля, вт
вт1300:00−5сз5126066 0.0 1017363
03:00−7сз5116681 0.0 1016344
06:00−8зсз612725 0.0 1015412
09:00−4сз71055100 0.0 10141809
12:00−1сз7942100 0.0 10122378
15:000сз7934100 0.0 10102684
18:000сз6938100 0.0 10101306
21:00−4зсз4115698 0.0 1011252
14 апреля, ср
ср1400:00−5зсз411667 0.0 1010274
03:00−5зсз49685 0.0 1010245
06:00−6зсз49705 0.0 1010236
09:00−1сз57455 0.0 10111325
12:00+2сз5731100 0.0 10102278
15:00+4сз4626100 0.0 10092476
18:00+4з1230100 0.0 1009235
21:00−1юз36665 0.0 1011107
15 апреля, чт
чт1500:00−2зюз227053 0.0 101112
03:00−3юв347216 0.0 101161
06:00−3вюв4862100 0.0 1010182
09:00+1вюв71141100 0.0 1008413
12:00+2вюв91550100 0.0 1004672
15:00+2вюв101781100 1.3 1001900
18:00+4в122065100 0.8 996896
21:00+4вюв101870100 1.4 994565